Wetterdaten der Wetterstation 58769 Nachrodt-Wiblingwerde

Letzte Wetterlage 26.01.2015 05:02
Wetterdiagramm
Tabellarische Darstellung
Datum Temperatur Windchill Feuchte Luftdruck Windrichtung Windstärke Niederschlag
26.01.2015 05:02 1,5 °C 1,5 °C 87 % 1022,7 hPa 180 0.3 0,00 mm
26.01.2015 04:52 1,4 °C 1,4 °C 87 % 1022,9 hPa 315 0.0 0,00 mm
26.01.2015 04:42 1,4 °C 1,4 °C 87 % 1022,9 hPa 0 0.0 0,00 mm
26.01.2015 04:32 1,4 °C 1,4 °C 87 % 1023,1 hPa 0 0.7 0,00 mm
26.01.2015 04:22 1,4 °C 1,4 °C 87 % 1023,2 hPa 158 0.0 0,00 mm
26.01.2015 04:12 1,4 °C 1,4 °C 87 % 1023,2 hPa 0 0.7 0,00 mm
26.01.2015 04:02 1,4 °C 1,4 °C 87 % 1023,3 hPa 0 1.0 0,00 mm
26.01.2015 03:57 1,4 °C 1,4 °C 87 % 1023,5 hPa 315 0.3 0,00 mm
26.01.2015 03:52 1,4 °C 1,4 °C 87 % 1023,7 hPa 158 0.0 0,00 mm
26.01.2015 03:42 1,4 °C 1,4 °C 87 % 1023,8 hPa 225 0.3 0,00 mm
26.01.2015 03:32 1,4 °C 1,4 °C 87 % 1024,2 hPa 0 0.0 0,00 mm
26.01.2015 03:22 1,3 °C 1,3 °C 87 % 1024,3 hPa 45 0.0 0,00 mm
26.01.2015 03:12 1,3 °C 1,3 °C 87 % 1024,4 hPa 180 0.0 0,00 mm
26.01.2015 03:02 1,3 °C 1,3 °C 87 % 1024,5 hPa 180 0.7 0,00 mm
26.01.2015 02:57 1,2 °C 1,2 °C 87 % 1024,6 hPa 225 0.3 0,00 mm
26.01.2015 02:47 1,2 °C 1,2 °C 87 % 1024,6 hPa 90 0.0 0,00 mm
26.01.2015 02:37 1,2 °C 1,2 °C 87 % 1024,8 hPa 315 0.0 0,00 mm
26.01.2015 02:27 1,2 °C 1,2 °C 87 % 1024,9 hPa 0 0.3 0,00 mm
26.01.2015 02:17 1,2 °C 1,2 °C 87 % 1024,8 hPa 0 0.0 0,00 mm
26.01.2015 02:07 1,2 °C 1,2 °C 87 % 1024,7 hPa 0 0.0 0,00 mm
26.01.2015 01:57 1,2 °C 1,2 °C 87 % 1025,0 hPa 0 0.0 0,30 mm
26.01.2015 01:52 1,2 °C 1,2 °C 87 % 1025,0 hPa 0 0.0 0,30 mm
26.01.2015 01:42 1,2 °C 1,2 °C 87 % 1025,1 hPa 0 0.0 0,30 mm
26.01.2015 01:32 1,2 °C 1,2 °C 87 % 1025,3 hPa 0 0.0 0,30 mm
26.01.2015 01:22 1,2 °C 1,2 °C 87 % 1025,1 hPa 0 0.0 0,30 mm
Neue Wetterwarnung

Neue Niederschlagsmeldung
Neue Meldung
Regen Liveticker
    sehr starker Regen/Gewitter
    starker Regen/Gewitter
    mäßiger bis starker Regen
    mäßiger Regen
    leichter bis mäßiger Regen
    kein Regen
    Empfehlen Sie wetter.com